�N����,����,�~����,�C��,���x,�C��,����,���ϕ���,�ő�u�ԕ���,�ő厞����,���˗�,�I�_���x,�n�����x,�ő啗���N��,DTYPE
"20/01/13","00:10",0.0,5.6,95.0,1005.5,327.2,2.7,4.7,318.6,0.00,4.9,7.7,"00:03:12",1
"20/01/13","00:20",0.0,5.3,94.9,1005.7,265.8,0.8,3.1,330.9,0.00,4.6,7.5,"00:10:16",1
"20/01/13","00:30",0.0,4.9,95.1,1006.0,293.8,0.6,1.3,310.4,0.00,4.2,7.5,"00:27:28",1
"20/01/13","00:40",0.0,4.5,95.3,1006.0,330.1,1.7,2.4,325.3,0.00,3.9,7.5,"00:36:00",1
"20/01/13","00:50",0.0,4.1,95.6,1005.7,312.1,1.7,2.9,320.5,0.00,3.5,7.4,"00:41:04",1
"20/01/13","01:00",0.0,3.8,95.8,1005.5,301.8,1.5,2.5,321.7,0.00,3.2,7.5,"00:56:56",1
"20/01/13","01:10",0.0,3.7,95.8,1005.7,302.7,1.1,2.1,348.6,0.00,3.1,7.2,"01:04:32",1
"20/01/13","01:20",0.0,3.5,96.1,1005.5,282.1,1.2,2.0,301.3,0.00,3.0,7.3,"01:15:52",1
"20/01/13","01:30",0.0,3.3,96.1,1005.5,290.6,1.3,2.5,315.3,0.00,2.8,7.2,"01:25:36",1
"20/01/13","01:40",0.0,3.5,96.3,1005.5,322.1,2.1,2.8,335.3,0.00,3.0,7.1,"01:38:40",1
"20/01/13","01:50",0.0,3.0,96.5,1005.5,322.1,2.1,3.4,319.7,0.00,2.5,7.1,"01:40:56",1
"20/01/13","02:00",0.0,3.6,96.7,1005.5,315.3,2.0,3.1,328.4,0.00,3.2,7.0,"01:58:52",1
"20/01/13","02:10",0.0,4.0,96.6,1005.7,292.5,2.0,3.4,319.6,0.00,3.5,7.1,"02:09:38",1
"20/01/13","02:20",0.0,4.6,96.7,1005.7,295.2,2.3,3.2,333.9,0.00,4.2,7.0,"02:13:44",1
"20/01/13","02:30",0.0,5.3,96.4,1006.0,289.3,3.0,5.0,266.6,0.00,4.8,6.9,"02:25:00",1
"20/01/13","02:40",0.0,5.4,95.9,1006.4,295.1,2.6,4.3,298.2,0.00,4.8,7.1,"02:32:28",1
"20/01/13","02:50",0.0,5.3,95.6,1006.4,298.3,2.3,3.9,290.8,0.00,4.7,7.0,"02:44:04",1
"20/01/13","03:00",0.0,5.2,95.4,1006.4,293.4,2.1,2.9,267.1,0.00,4.6,6.9,"02:53:20",1
"20/01/13","03:10",0.0,5.0,95.1,1007.1,299.7,1.8,3.1,300.1,0.00,4.3,7.1,"03:07:28",1
"20/01/13","03:20",0.0,4.8,94.9,1007.1,308.8,1.6,2.8,321.3,0.00,4.1,6.7,"03:17:56",1
"20/01/13","03:30",0.0,4.5,94.4,1006.9,319.5,1.7,2.7,310.9,0.00,3.7,6.8,"03:21:12",1
"20/01/13","03:40",0.0,4.1,94.2,1007.4,334.0,2.2,4.2,339.8,0.00,3.3,6.8,"03:34:30",1
"20/01/13","03:50",0.0,3.4,94.2,1006.9,332.9,1.3,2.7,343.0,0.00,2.6,6.8,"03:46:32",1
"20/01/13","04:00",0.0,3.3,94.2,1007.1,332.1,1.3,2.1,39.1,0.00,2.5,6.7,"03:58:08",1
"20/01/13","04:10",0.0,2.9,94.0,1006.9,314.9,1.3,2.5,319.3,0.00,2.1,6.6,"04:08:08",1
"20/01/13","04:20",0.0,2.7,93.9,1006.7,319.7,1.8,2.9,320.9,0.00,1.9,6.6,"04:18:56",1
"20/01/13","04:30",0.0,2.1,93.9,1006.9,306.7,1.8,2.7,330.8,0.00,1.3,6.6,"04:20:40",1
"20/01/13","04:40",0.0,2.3,94.0,1006.9,315.8,2.1,3.4,319.4,0.00,1.5,6.3,"04:33:52",1
"20/01/13","04:50",0.0,2.2,93.9,1006.4,301.2,1.3,2.6,302.2,0.00,1.4,6.6,"04:40:40",1
"20/01/13","05:00",0.0,2.1,94.0,1006.7,298.5,1.6,3.2,327.8,0.00,1.3,6.5,"04:58:32",1
"20/01/13","05:10",0.0,1.9,94.0,1006.7,314.8,1.5,2.4,324.4,0.00,1.1,6.5,"05:06:56",1
"20/01/13","05:20",0.0,1.5,94.1,1006.7,296.3,1.5,2.5,319.2,0.00,0.7,6.3,"05:18:08",1
"20/01/13","05:30",0.0,1.9,94.3,1007.1,317.1,2.1,3.1,331.2,0.00,1.1,6.5,"05:26:56",1
"20/01/13","05:40",0.0,1.5,94.2,1006.9,309.7,1.6,3.1,328.8,0.00,0.7,6.5,"05:31:28",1
"20/01/13","05:50",0.0,1.3,94.3,1007.1,316.0,1.8,2.4,323.1,0.00,0.5,6.2,"05:44:48",1
"20/01/13","06:00",0.0,1.1,94.5,1006.9,309.9,1.3,1.8,322.7,0.00,0.4,6.5,"05:53:44",1
"20/01/13","06:10",0.0,0.8,94.6,1006.9,306.8,1.1,1.6,332.4,0.00,0.1,6.2,"06:03:44",1
"20/01/13","06:20",0.0,0.6,94.8,1006.9,319.9,1.5,2.1,318.9,0.00,-0.1,6.1,"06:16:32",1
"20/01/13","06:30",0.0,0.4,95.1,1007.1,331.5,2.0,2.8,335.7,0.00,-0.3,6.0,"06:29:04",1
"20/01/13","06:40",0.0,0.4,95.0,1007.1,310.4,1.2,3.1,346.9,0.00,-0.3,6.2,"06:30:40",1
"20/01/13","06:50",0.2,0.1,95.4,1007.1,304.3,0.7,1.8,315.9,0.00,-0.5,6.0,"06:42:08",1
"20/01/13","07:00",0.0,0.5,95.9,1007.4,299.6,1.0,2.2,312.8,0.00,0.0,5.9,"06:55:36",1
"20/01/13","07:10",0.0,0.9,95.5,1007.4,259.8,0.6,1.3,282.7,0.00,0.3,5.8,"07:07:44",1
"20/01/13","07:20",0.0,0.9,95.5,1007.6,336.0,1.5,3.7,333.4,0.00,0.3,5.9,"07:18:32",1
"20/01/13","07:30",0.0,0.7,95.8,1007.4,333.1,1.6,2.7,336.7,0.00,0.1,6.0,"07:21:20",1
"20/01/13","07:40",0.0,0.4,95.8,1007.6,312.4,1.1,2.4,319.7,0.00,-0.2,6.0,"07:32:56",1
"20/01/13","07:50",0.0,0.3,96.1,1007.8,320.8,1.5,2.0,333.0,0.00,-0.2,5.7,"07:45:52",1
"20/01/13","08:00",0.0,0.5,96.2,1008.1,321.2,1.3,3.7,312.4,0.00,0.0,5.9,"07:59:20",1
"20/01/13","08:10",0.0,0.8,96.3,1007.8,325.9,1.5,2.8,324.6,0.00,0.3,5.8,"08:04:48",1
"20/01/13","08:20",0.0,1.1,96.5,1008.3,311.8,2.1,4.3,318.0,0.00,0.6,5.7,"08:16:40",1
"20/01/13","08:30",0.0,1.8,96.5,1008.8,295.9,1.3,3.2,317.2,0.00,1.3,5.8,"08:25:36",1
"20/01/13","08:40",0.0,2.4,96.4,1008.8,305.4,1.2,3.1,315.6,0.01,1.9,5.7,"08:31:44",1
"20/01/13","08:50",0.0,3.4,96.3,1009.5,49.2,0.5,1.0,108.9,0.02,2.9,5.7,"08:49:54",1
"20/01/13","09:00",0.0,4.1,96.2,1009.3,295.6,1.1,1.6,264.5,0.03,3.6,5.6,"08:56:38",1
"20/01/13","09:10",0.0,4.7,95.9,1009.7,244.3,0.7,2.5,315.7,0.05,4.1,5.7,"09:00:42",1
"20/01/13","09:20",0.0,5.1,95.3,1009.7,290.4,0.8,2.6,330.4,0.07,4.5,6.1,"09:19:28",1
"20/01/13","09:30",0.0,5.8,94.8,1010.2,278.9,1.2,2.4,272.2,0.09,5.1,5.9,"09:21:52",1
"20/01/13","09:40",0.0,5.9,93.6,1010.7,122.0,1.0,2.2,109.4,0.12,5.0,5.9,"09:35:44",1
"20/01/13","09:50",0.0,6.5,92.1,1010.9,165.8,1.0,2.5,96.6,0.17,5.4,6.2,"09:45:12",1
"20/01/13","10:00",0.0,6.9,89.1,1011.4,161.6,1.1,3.1,35.1,0.19,5.3,6.4,"09:59:52",1
"20/01/13","10:10",0.0,7.3,85.3,1011.4,341.4,1.1,2.2,39.1,0.20,5.0,6.3,"10:04:08",1
"20/01/13","10:20",0.0,7.6,80.4,1012.1,73.2,1.1,2.8,49.3,0.22,4.5,6.5,"10:13:04",1
"20/01/13","10:30",0.0,8.0,75.4,1012.1,337.2,1.1,3.4,25.0,0.24,4.0,7.0,"10:21:36",1
"20/01/13","10:40",0.0,8.6,71.7,1012.3,266.7,1.3,2.1,256.5,0.27,3.8,7.0,"10:34:24",1
"20/01/13","10:50",0.0,8.9,69.3,1012.3,265.4,2.0,4.2,341.0,0.29,3.6,7.3,"10:49:28",1
"20/01/13","11:00",0.0,9.0,67.2,1012.1,303.9,2.2,5.8,340.2,0.30,3.3,7.3,"10:58:40",1
"20/01/13","11:10",0.0,9.3,65.0,1012.3,300.5,2.2,5.0,331.7,0.32,3.1,7.6,"11:07:36",1
"20/01/13","11:20",0.0,9.8,64.8,1012.1,315.4,2.2,4.1,331.8,0.33,3.5,7.9,"11:15:04",1
"20/01/13","11:30",0.0,10.1,62.2,1011.9,273.1,1.7,3.6,236.8,0.35,3.2,7.9,"11:24:08",1
"20/01/13","11:40",0.0,10.3,61.4,1011.9,266.8,1.8,3.6,209.0,0.37,3.2,8.2,"11:36:40",1
"20/01/13","11:50",0.0,10.6,59.0,1011.4,277.3,2.0,4.5,340.4,0.37,3.0,8.3,"11:48:40",1
"20/01/13","12:00",0.0,10.6,57.0,1011.4,303.5,2.8,5.4,328.7,0.39,2.5,8.5,"11:51:04",1
"20/01/13","12:10",0.0,10.5,56.2,1011.2,298.0,2.7,5.4,340.5,0.39,2.2,8.8,"12:08:16",1
"20/01/13","12:20",0.0,11.0,55.5,1010.7,273.6,2.1,3.9,341.0,0.40,2.5,9.1,"12:18:56",1
"20/01/13","12:30",0.0,11.1,54.2,1010.7,263.0,2.5,4.2,338.9,0.41,2.2,9.1,"12:29:44",1
"20/01/13","12:40",0.0,11.3,53.4,1010.4,305.3,2.2,4.0,282.8,0.42,2.2,9.1,"12:35:28",1
"20/01/13","12:50",0.0,11.6,52.0,1010.2,306.6,2.8,5.2,317.1,0.42,2.1,9.4,"12:47:20",1
"20/01/13","13:00",0.0,11.8,51.3,1010.2,279.3,2.3,4.0,345.5,0.41,2.1,9.8,"12:50:24",1
"20/01/13","13:10",0.0,12.1,50.6,1010.0,272.0,2.0,3.5,327.5,0.41,2.2,9.9,"13:00:02",1
"20/01/13","13:20",0.0,11.7,50.1,1010.2,326.5,3.5,6.2,338.3,0.42,1.7,10.2,"13:12:40",1
"20/01/13","13:30",0.0,12.1,50.4,1009.7,268.7,2.2,4.0,225.2,0.43,2.2,10.2,"13:27:12",1
"20/01/13","13:40",0.0,12.3,49.6,1009.7,269.2,2.1,5.2,340.6,0.38,2.1,10.3,"13:33:52",1
"20/01/13","13:50",0.0,12.4,48.1,1009.5,303.0,1.5,5.5,336.9,0.40,1.8,10.5,"13:45:52",1
"20/01/13","14:00",0.0,12.7,48.0,1009.7,265.7,2.0,5.2,325.9,0.44,2.0,10.6,"13:57:44",1
"20/01/13","14:10",0.0,12.7,48.3,1009.5,277.3,2.2,4.4,319.6,0.38,2.1,11.0,"14:05:50",1
"20/01/13","14:20",0.0,12.8,49.2,1010.2,262.9,1.7,4.3,236.3,0.36,2.5,11.0,"14:10:24",1
"20/01/13","14:30",0.0,12.6,48.3,1009.7,274.0,2.5,4.4,333.5,0.39,2.0,11.2,"14:24:40",1
"20/01/13","14:40",0.0,12.9,47.8,1010.0,264.2,2.5,5.7,231.2,0.41,2.1,11.3,"14:37:52",1
"20/01/13","14:50",0.0,12.9,47.5,1010.2,267.7,2.0,4.3,239.0,0.27,2.1,11.4,"14:49:28",1
"20/01/13","15:00",0.0,12.3,48.6,1010.2,261.6,2.3,4.4,337.3,0.25,1.8,11.2,"14:59:52",1
"20/01/13","15:10",0.0,11.6,50.4,1010.2,262.3,2.2,4.2,239.1,0.16,1.7,11.5,"15:08:00",1
"20/01/13","15:20",0.0,11.3,51.6,1010.0,257.5,2.2,4.7,244.1,0.10,1.7,11.4,"15:10:16",1
"20/01/13","15:30",0.0,11.0,51.8,1010.2,301.7,2.7,5.1,338.9,0.12,1.5,11.4,"15:24:40",1
"20/01/13","15:40",0.0,11.3,51.4,1010.2,301.3,2.7,4.7,312.4,0.14,1.7,11.3,"15:36:32",1
"20/01/13","15:50",0.0,11.4,51.5,1010.2,268.1,2.5,4.3,240.1,0.16,1.8,11.2,"15:43:12",1
"20/01/13","16:00",0.0,10.9,52.6,1010.4,252.0,2.7,7.0,234.2,0.09,1.6,11.2,"15:50:56",1
"20/01/13","16:10",0.0,10.7,52.9,1010.2,274.8,2.2,4.3,249.1,0.08,1.5,11.0,"16:02:16",1
"20/01/13","16:20",0.0,10.7,52.7,1010.4,267.9,2.3,4.0,254.5,0.09,1.5,10.9,"16:11:12",1
"20/01/13","16:30",0.0,10.9,53.0,1010.7,276.9,2.2,4.3,299.6,0.09,1.7,10.9,"16:23:20",1
"20/01/13","16:40",0.0,10.7,53.3,1010.7,265.1,2.0,3.2,276.9,0.05,1.6,10.8,"16:31:12",1
"20/01/13","16:50",0.0,10.4,53.3,1010.9,265.8,2.2,5.0,260.0,0.03,1.4,10.9,"16:43:28",1
"20/01/13","17:00",0.0,10.1,54.5,1011.2,267.4,2.1,3.5,261.1,0.01,1.4,10.5,"16:57:52",1
"20/01/13","17:10",0.0,9.9,54.9,1011.2,278.4,1.7,2.9,324.5,0.00,1.3,10.6,"17:03:28",1
"20/01/13","17:20",0.0,9.8,55.3,1011.4,274.9,2.0,2.9,310.5,0.00,1.3,10.3,"17:13:28",1
"20/01/13","17:30",0.0,9.7,55.8,1011.2,265.4,1.8,2.8,225.9,0.00,1.3,10.4,"17:23:44",1
"20/01/13","17:40",0.0,9.6,55.7,1011.4,271.8,1.6,3.4,221.9,0.00,1.2,10.1,"17:30:16",1
"20/01/13","17:50",0.0,9.6,56.2,1011.6,259.5,1.8,3.1,263.7,0.00,1.3,10.2,"17:42:16",1
"20/01/13","18:00",0.0,9.4,56.3,1011.4,276.3,1.7,2.5,238.4,0.00,1.2,10.1,"17:51:52",1
"20/01/13","18:10",0.0,9.2,56.8,1012.1,280.0,1.5,2.1,271.8,0.00,1.1,9.9,"18:00:56",1
"20/01/13","18:20",0.0,9.0,56.9,1012.3,287.9,1.7,3.1,301.5,0.00,1.0,9.9,"18:19:36",1
"20/01/13","18:30",0.0,8.9,57.2,1011.9,286.3,1.8,3.7,294.3,0.00,0.9,9.9,"18:29:12",1
"20/01/13","18:40",0.0,8.8,57.7,1012.3,291.8,1.6,2.2,279.7,0.00,1.0,9.7,"18:32:48",1
"20/01/13","18:50",0.0,8.4,59.2,1012.3,298.5,1.6,2.8,323.8,0.00,0.9,9.6,"18:44:16",1
"20/01/13","19:00",0.0,7.8,61.2,1012.8,295.1,1.6,2.6,318.3,0.00,0.8,9.4,"18:54:16",1
"20/01/13","19:10",0.0,7.3,64.0,1013.0,300.8,2.0,2.5,322.7,0.00,1.0,9.3,"19:07:12",1
"20/01/13","19:20",0.0,6.7,66.2,1012.8,305.6,1.7,2.8,323.3,0.00,0.9,9.3,"19:16:40",1
"20/01/13","19:30",0.0,6.6,68.3,1012.8,305.1,2.1,3.2,317.3,0.00,1.2,9.1,"19:26:48",1
"20/01/13","19:40",0.0,6.4,69.6,1013.3,302.7,2.0,2.6,321.5,0.00,1.3,9.2,"19:37:20",1
"20/01/13","19:50",0.0,6.2,70.8,1013.3,309.8,2.2,3.4,316.9,0.00,1.3,8.7,"19:45:44",1
"20/01/13","20:00",0.0,6.4,71.4,1013.3,314.3,2.5,3.6,316.0,0.00,1.6,8.9,"19:56:00",1
"20/01/13","20:10",0.0,6.8,71.0,1013.8,323.2,3.0,3.7,340.5,0.00,2.0,8.9,"20:03:44",1
"20/01/13","20:20",0.0,6.8,70.9,1014.0,295.3,1.8,3.1,316.1,0.00,1.9,8.7,"20:11:12",1
"20/01/13","20:30",0.0,6.5,71.0,1013.8,292.2,1.7,2.4,318.2,0.00,1.7,8.9,"20:28:00",1
"20/01/13","20:40",0.0,6.2,71.1,1014.2,295.6,1.5,2.0,313.4,0.00,1.4,8.7,"20:36:32",1
"20/01/13","20:50",0.0,6.1,71.4,1014.2,309.3,1.7,2.7,323.7,0.00,1.4,8.8,"20:43:36",1
"20/01/13","21:00",0.0,6.1,72.0,1014.5,320.7,2.2,3.4,327.8,0.00,1.5,8.6,"20:58:24",1
"20/01/13","21:10",0.0,6.0,72.3,1014.2,313.5,2.0,3.3,323.7,0.00,1.4,8.5,"21:03:28",1
"20/01/13","21:20",0.0,5.8,72.6,1014.2,314.0,1.8,2.6,328.2,0.00,1.3,8.5,"21:15:52",1
"20/01/13","21:30",0.0,5.8,72.8,1014.2,323.2,2.0,3.1,304.7,0.00,1.3,8.1,"21:21:20",1
"20/01/13","21:40",0.0,5.3,73.1,1014.2,313.8,1.8,2.7,321.5,0.00,0.9,8.2,"21:32:00",1
"20/01/13","21:50",0.0,5.0,73.6,1014.2,316.7,1.6,2.1,331.1,0.00,0.7,8.1,"21:48:00",1
"20/01/13","22:00",0.0,4.6,74.1,1014.0,321.0,1.7,2.0,319.1,0.00,0.4,8.2,"21:55:28",1
"20/01/13","22:10",0.0,4.1,74.5,1014.2,301.5,1.5,2.4,317.1,0.00,0.0,8.0,"22:07:04",1
"20/01/13","22:20",0.0,3.7,75.0,1014.2,305.1,1.3,1.9,315.0,0.00,-0.3,8.1,"22:16:24",1
"20/01/13","22:30",0.0,3.8,75.9,1014.5,308.4,2.0,3.5,330.6,0.00,0.0,7.7,"22:28:04",1
"20/01/13","22:40",0.0,3.8,76.5,1014.2,318.4,2.0,2.9,333.0,0.00,0.1,7.9,"22:36:42",1
"20/01/13","22:50",0.0,3.8,77.4,1014.5,322.4,2.1,3.3,322.2,0.00,0.3,7.8,"22:49:30",1
"20/01/13","23:00",0.0,3.7,78.0,1014.2,304.6,1.8,3.7,335.2,0.00,0.3,7.7,"22:59:50",1
"20/01/13","23:10",0.0,4.0,78.4,1014.2,310.8,2.2,5.1,320.8,0.00,0.6,7.6,"23:04:44",1
"20/01/13","23:20",0.0,4.0,78.5,1014.0,329.6,2.6,4.0,323.3,0.00,0.6,7.2,"23:16:30",1
"20/01/13","23:30",0.0,3.7,78.8,1014.2,294.2,1.6,3.2,335.3,0.00,0.4,7.6,"23:20:16",1
"20/01/13","23:40",0.0,3.4,79.3,1014.2,291.8,1.6,2.7,332.0,0.00,0.2,7.3,"23:38:40",1
"20/01/13","23:50",0.0,3.4,79.5,1014.7,281.8,1.2,2.4,270.5,0.00,0.2,7.3,"23:40:08",1
"20/01/13","24:00",0.0,3.0,79.9,1014.7,278.1,1.6,2.2,290.7,0.00,-0.1,7.2,"23:58:08",1
